CamptonHillsWeather.com

Find the Weather for any City, State  
or Zipcode, or Country:

Campton Hills, IL Weather
Local Radar

Local Radar

Graphs, Details
Graphs and Gauges
Detailed Weather
Detailed Reports
Ajax Version (old)
Central Kane Co Summary
Davis Current Weather Graphs
Davis 24 Hour Weather History

CW3778 Data

Weather Underground
Maps
Temperature
Heat Index
Windchill
Humidity
Radar
Dew Point
Wind
Visibility
Visible Satellite
Satellite
Fronts
Snow Depth
Jet Stream
Flight Rules
Forecast Maps
Temperature Forecast
Maximum Temperature Forecast
Minimum Temperature Forecast
Dewpoint Forecast
Prevalent Weather
12Hr Probability of Precip.
Sky Cover
Health Maps
UV Forecast
Air Quality
Peak Air Quality Index
Weather Station
Davis Instruments Vantage Pro
Current Conditions [Select Refresh to Update]

Updated: 5:13am on 9/27/16

(location)
Currently:
65.3F

Clear
Clear

High: 68.4 F< 
(1:56am
Low: 65.3 F 
(5:13am)
Wind: NW 2 mph
Light Air
Gust: 4 mph
Today's High Wind: 13 mph (1:33am)
Humidity: 37%
Pressure: 29.75 in  (Steady
Pressure Rate: 0.005 in/hr
Dew Point: 38.4F
Wind Chill: 65.3 F
Heat Index (feels like): 65.0 F
Comfort Level: Comfortable
Temperature Rate:  -1.23F/hr
 
5 Day Forecast
 
Wed Thu Fri Sat Sun
Clear Clear Clear Clear Clear
Chance Rain Chance Rain Chance Rain Chance Rain Mostly Cloudy
61 68 68 70 71
53 53 55 53 52

Records and Normals
 
Temperature Forecast Normal Record
High 61 0 0
(0)
Low 53 0 0
(0)
 
Links
 
 
Weather Advisories
Full Advisory Text...
Weather Map

Web Cam

Almanac
 
Sunrise:  
6:49am
Moonrise: 
3:22am

Moon Phase:
11%

Sunset: 
6:43pm
Moonset:  
5:10pm
 Star Chart...
Rainfall Totals
Hourly Rain 0.00 in
Daily Rain: 0.00 in
Monthly Rain: 2.71 in
Yearly Rain: 27.07 in
Normal Rain, month to date: 0.00 in
Normal Rain, year to date: 0.00 in
Link to Village of Campton Hills Map

Link to Counties of Illinois Map

Local Weather Exchange Network
Station ID City 
(Click for Map Location)
Neighborhood 
(Click for History)
Last Update (Date & Time) Temperature
 ()
Dew
Point ()
Humidity 
(%)
Wind 
(mph)
from the Wind Gust 
(mph) 
Pressure(in) Hourly
Rain(in)
KILSAINT20 Saint Charles Knoll Creek Drive 09/27 17:10:08 65.3 46.0 50 0 North 0 29.68 0.00
KILSAINT17 Saint Charles Glen Oak Lane 09/27 17:07:24 69.1 40.0 34 0 North 0 29.79 0.00
KILSAINT15 Saint Charles Shoreline Drive 09/27 17:10:16 68.7 40.0 35 0 North 0 29.74 0.00
KILSAINT10 Saint Charles Saint Charles Burr Road 09/27 17:11:51 67.5 40.0 37 2 SE 0 29.77 0.00
KILSTCHA10 St. Charles Hunt Club 09/27 17:12:12 69.4 15.0 12 0 WSW 0 29.29 0.00
KILCAMPT3 Campton Hills Campton Hills 09/27 16:52:04 68.4 30.0 24 4 WSW 20 29.75 0.00
KILSAINT6 Saint Charles 3 Lakes 09/27 16:49:02 68.5 40.0 36 3 NNW 0 29.45 0.00
KILSOUTH10 South Elgin East Thornwood Drive 09/27 17:09:27 69.6 40.0 33 0 North 0 29.73 0.00
KILSAINT9 Saint Charles Fox Chase 09/27 17:12:08 68.2 40.0 35 0 WSW 0 29.78 0.00
KILGENEV6 Geneva Dover Ridge 09/27 17:12:14 66.8 36.0 32 6 WSW 6 29.73 0.00
KILELBUR18 Elburn Elodie Drive 09/27 17:06:19 66.6 42.0 41 0 North 0 29.75 0.00
KILGENEV10 Geneva Southampton Drive 09/27 17:08:24 67.1 43.0 41 1 WNW 3 29.73 0.00
KILSTCHA8 St. Charles Ronzheimer Ave. & S. Tyler Rd. 09/27 17:12:13 67.6 37.0 32 4 SW 11 29.72 0.00
KILGENEV18 Geneva downtown 09/27 17:11:57 67.3 36.0 31 3 SW 11 29.72 0.00
KILGENEV3 Geneva Mill Creek (Blackberry Way) 09/27 17:11:49 66.6 37.0 34 5 WNW 18 29.73 0.00
KILSTCHA1 St Charles CamptonHillsWeather.com Central Kane County 09/27 15:15:43 66.5 40.0 37 3 WNW 7 29.75 0.00
KILGENEV17 Geneva Geneva 09/27 17:10:16 68.5 45.0 42 0 North 0 29.75 0.00
KILWAYNE7 Wayne Honey Hill 09/27 17:08:05 67.6 44.0 42 0 North 0 29.89 0.00
KILGENEV2 Geneva Mill Creek 09/27 17:06:03 66.7 36.0 32 2 NNW 9 29.69 0.00
KILBATAV13 Batavia Blackhawk Dr, Batavia 09/27 17:12:02 67.5 30.0 25 4 WNW 5 29.77 0.00
KILELBUR23 Elburn Elburn, IL 09/27 17:01:59 65.5 37.0 35 2 North 0 29.64 0.00
KILBATAV7 Batavia Charleston Street 09/27 17:08:23 66.4 44.0 43 0 North 0 29.74 0.00
KILBATAV16 Batavia Park Street 09/27 17:11:26 67.3 36.0 31 5 SW 0 29.74 0.00
KILBATAV6 Batavia Tri Cities on the Fox River 2 09/27 17:00:27 64.1 32.0 30 0 SE 0 29.80 0.00
KILBATAV1 Batavia Tri-Cities on the Fox River 09/27 17:11:27 67.3 33.0 28 0 WSW 11 29.74 0.00
KILELBUR10 Elburn Prairie Valley North 09/27 17:10:38 65.7 37.0 35 5 WNW 8 29.56 0.00
KILELGIN20 Elgin Williamsburg Drive 09/27 17:10:03 67.6 45.0 43 0 North 0 29.72 0.00
KILBATAV10 Batavia Deerpath Road 09/27 17:06:52 66.6 40.0 37 0 North 0 29.75 0.00
KDPA Chicago DuPage Official Station 09/27 16:52:00 68.0 34.0 28 17 WSW --- 29.75 ---
KARR Aurora Official Station 09/27 16:52:00 69.0 33.0 26 13 West --- 29.76 ---
KDKB DeKalb Official Station 09/27 16:55:00 65.0 34.0 32 15 West --- 29.77 ---
KORD Chicago Official Station 09/27 16:51:00 67.0 32.0 27 17 West --- 29.74 ---
Full Advisory Text
No Warnings

Ambient Weather and Weather Underground
 Never base important decisions on this or any weather information obtained from the Internet
Updated Automatically by Ambient Weather's Virtual Weather Station  V13.01